RH
92 68 56 56 57 72 62 57 58 60 62 62 63 61 60 61 62 60 59 56 52 49 44 36 39 36 35 32 26 24 25 27 28 22 23 25 23 17 18 21 20 24 23 21 20 19 18
94 94 69 51 47 45 44 41 38 41 46 50 53 56 56 55 53 53 51 49 46 42 33 34 35 32 33 36 23 26 26 26 26 20 23 24 28 24 20 22 27 23 23 21 18 19 21
95 94 92 56 44 40 41 41 38 36 38 40 41 44 46 46 46 47 45 42 36 32 32 34 28 28 29 34 26 27 27 28 22 22 27 28 25 25 21 26 18 22 25 22 20 19 20
96 96 95 74 46 38 34 32 29 30 33 35 35 35 36 34 32 32 32 30 30 29 27 27 22 26 39 23 27 26 25 23 23 18 19 20 23 24 23 22 18 21 20 28 23 19 23
95 96 96 94 49 39 33 26 26 28 30 32 33 32 30 32 30 28 28 27 26 26 23 23 24 34 29 26 26 28 24 25 22 22 20 15 24 28 26 32 25 19 29 20 28 20 20
99 96 96 96 92 46 34 29 26 29 28 29 30 30 30 28 24 24 23 21 22 23 24 23 24 36 25 31 28 28 24 25 23 22 30 28 29 35 31 85 82 30 19 15 19 27 20
88 99 98 94 94 93 41 36 33 32 30 24 26 26 27 26 22 23 23 30 37 35 28 44 37 30 31 29 25 27 26 28 21 22 39 29 51 62 42 33 30 26 23 24 22 25 26
86 90 99 98 74 60 62 35 31 30 32 25 23 25 23 24 24 23 25 39 51 36 32 29 31 30 30 32 34 30 26 24 28 32 28 51 48 39 35 32 30 27 24 24 21 27 26
98 88 93 100 98 52 29 27 27 28 30 28 19 21 21 21 23 24 30 43 31 37 33 27 28 28 31 32 32 36 30 25 28 34 35 53 44 34 30 37 34 30 36 41 38 36 27
100 98 92 87 93 61 26 22 22 24 28 25 21 19 17 19 30 31 45 36 36 34 69 30 26 31 27 33 31 27 31 31 30 34 39 40 35 34 32 37 40 44 46 41 44 58 72
100 100 100 99 98 64 38 28 21 20 23 24 20 17 19 26 29 37 51 39 46 51 74 28 28 23 24 32 32 30 29 31 32 34 41 54 39 38 36 51 42 58 43 43 48 61 55
99 100 97 99 96 88 32 22 22 21 20 20 19 21 16 25 33 33 40 50 53 87 58 38 27 27 30 23 26 26 28 27 30 33 40 46 40 48 50 44 46 46 50 39 50 72 82
95 87 60 55 54 56 56 40 27 23 22 20 24 28 26 27 43 32 37 53 88 70 21 43 38 25 28 27 26 26 27 32 44 49 56 43 49 50 46 50 44 45 78 71 74 79 73
98 72 61 57 53 47 44 49 44 32 30 32 26 26 32 34 33 43 49 54 56 21 30 28 30 26 34 30 27 28 29 43 26 31 54 80 78 58 49 54 55 60 84 80 58 83 81
94 75 67 62 56 48 44 37 42 39 37 30 31 38 47 40 34 30 50 81 50 38 26 29 28 48 30 28 36 37 28 44 31 27 43 40 62 55 53 49 56 61 80 50 71 70 78
83 76 73 67 62 54 46 38 35 34 37 31 42 36 42 28 18 44 60 42 38 32 28 28 30 25 52 32 51 31 33 29 34 31 29 33 72 45 61 52 52 55 43 76 96 57 83
68 70 74 70 63 59 53 42 30 33 35 36 51 48 48 26 33 50 77 40 34 33 45 39 24 22 19 27 26 29 38 39 32 33 28 22 45 55 53 68 72 60 74 62 64 74 90
75 65 72 71 66 60 54 49 34 29 36 48 50 59 35 25 67 47 50 38 38 36 40 34 31 23 20 22 26 34 35 35 28 28 27 29 39 64 48 42 40 43 54 48 85 71 82
77 70 70 74 69 62 56 51 38 28 37 57 57 46 43 34 77 47 35 35 37 36 34 28 26 27 25 23 28 28 33 35 35 31 31 33 49 69 53 51 44 51 46 44 35 56 84
78 72 73 77 72 65 60 53 41 29 35 50 53 76 56 46 35 29 27 27 36 41 36 30 30 29 28 27 25 31 33 44 37 35 47 42 40 45 60 47 58 54 51 48 47 83 77
79 78 68 71 71 68 62 58 49 30 31 52 54 58 51 61 41 32 33 28 30 41 42 33 37 35 30 28 28 35 33 51 48 47 47 43 56 41 41 40 36 46 48 53 56 47 66
81 79 68 64 66 66 63 61 53 29 40 44 64 57 46 36 34 33 44 41 33 32 40 40 43 34 36 33 29 33 35 44 50 56 56 47 60 45 52 43 45 49 47 43 47 48 44
91 86 82 69 63 63 63 62 58 48 40 52 53 52 57 44 35 32 33 29 32 34 33 32 37 35 40 37 35 35 30 35 39 56 62 62 64 57 76 46 49 69 53 45 43 40 38
88 92 89 85 71 64 63 63 62 59 58 63 71 69 59 42 36 31 33 34 37 38 43 38 37 40 42 33 36 34 36 37 39 44 48 54 57 56 81 47 73 35 27 33 38 39 34
90 99 95 95 91 75 66 64 64 63 64 76 71 73 69 63 40 37 35 38 41 40 47 44 41 43 38 41 55 54 54 53 53 42 43 47 55 71 85 85 55 41 33 37 41 40 32
97 98 98 97 98 98 90 77 70 67 66 75 76 69 67 72 52 49 50 43 54 48 46 50 46 43 42 58 58 67 70 51 69 69 64 60 54 74 65 84 80 36 36 35 41 55 42
98 94 92 98 99 99 100 100 95 85 81 80 86 70 75 75 56 55 56 64 56 56 63 56 55 56 51 69 77 75 61 30 53 71 91 82 78 88 81 86 66 33 40 38 41 47 43
96 97 98 98 98 98 98 97 99 100 98 90 87 86 82 78 67 58 55 63 59 62 67 60 60 68 70 75 71 67 61 44 46 39 69 77 88 92 81 81 75 40 40 43 41 38 39
95 94 95 96 95 94 97 97 98 98 97 99 98 93 87 91 75 71 67 59 61 58 66 61 64 65 64 71 69 67 68 58 54 65 38 52 48 53 61 66 42 37 34 34 36 40 43
Wind_Speed
14 14 14 14 13 13 13 12 11 10 8 7 6 6 6 6 5 4 2 2 4 5 6 5 5 3 5 5 1 8 8 5 1 11 11 5 4 3 2 6 1 3 4 5 3 4 5
14 13 13 12 12 10 10 11 11 10 9 7 6 5 4 4 3 3 4 4 5 5 6 5 2 4 3 3 5 11 5 5 1 17 17 8 6 9 6 6 5 4 5 6 2 2 3
13 13 12 11 10 9 8 9 10 10 9 7 6 6 5 5 5 5 5 5 6 7 7 4 1 5 1 2 7 9 8 10 14 12 7 7 5 4 4 5 2 8 6 5 3 1 1
15 13 12 11 9 8 8 10 11 10 8 7 6 6 6 6 6 5 5 6 7 7 4 2 3 2 2 2 2 12 3 10 13 12 21 8 5 4 4 6 4 4 2 3 3 3 2
15 14 13 12 9 8 9 11 11 10 9 8 7 5 5 6 6 7 6 5 5 4 4 2 1 3 3 5 4 8 7 4 7 6 10 9 1 3 2 0 2 4 3 6 4 2 2
15 14 14 13 12 9 9 10 11 11 11 9 8 6 4 6 9 3 6 4 9 3 4 2 4 2 4 4 5 11 7 6 3 3 4 6 4 3 4 5 2 4 4 4 2 2 3
14 15 13 12 13 12 9 10 10 11 11 10 8 5 4 7 8 3 4 6 4 5 14 5 4 2 2 9 7 9 6 5 3 4 5 5 5 4 6 4 1 5 5 7 4 3 3
13 14 15 12 10 10 10 9 10 10 10 9 8 7 6 5 8 2 4 3 2 4 6 7 1 2 6 8 4 12 13 3 4 3 2 5 4 5 4 5 2 6 6 6 2 2 3
14 14 15 15 12 9 10 11 11 10 12 10 8 5 5 4 3 11 9 6 6 2 4 3 2 2 4 5 3 7 8 3 3 4 6 5 3 2 5 6 9 2 3 5 3 10 2
16 15 14 13 13 10 7 9 10 11 12 12 12 5 6 0 1 4 4 2 2 2 4 5 3 3 3 6 5 6 9 4 7 7 8 5 1 2 3 6 4 1 4 5 6 6 3
16 17 18 17 15 14 10 7 8 9 11 12 11 8 6 3 1 3 2 1 2 1 4 1 2 1 2 2 1 5 4 6 5 5 4 2 1 1 2 4 4 1 3 1 1 1 5
17 17 18 19 19 17 12 11 8 7 10 12 11 10 4 3 4 2 1 1 2 3 3 2 3 1 2 1 2 3 1 3 2 4 5 3 2 5 4 4 4 0 2 1 1 1 1
16 18 20 22 23 22 15 10 9 9 8 9 9 8 6 3 1 4 1 2 4 5 1 1 2 2 3 3 3 2 2 3 1 4 2 3 3 3 2 1 3 4 3 3 5 3 5
17 18 19 21 22 23 23 17 13 9 8 9 7 5 4 7 4 2 3 1 7 1 3 1 1 2 3 3 2 2 3 4 2 2 3 5 4 2 1 1 1 2 4 4 5 2 4
18 19 20 22 25 25 23 20 17 14 12 8 4 4 1 10 5 1 3 5 2 2 3 1 1 1 2 3 2 2 1 2 1 2 4 3 2 3 1 1 2 3 0 0 3 1 3
16 18 20 21 23 25 26 24 20 16 16 8 2 3 3 11 6 1 4 4 3 3 1 1 2 3 3 4 5 2 1 2 3 3 6 1 2 3 4 2 2 1 3 3 2 1 4
17 17 18 20 21 23 25 27 24 20 15 7 5 3 4 10 3 2 4 3 4 3 4 4 3 2 3 4 2 2 3 2 3 3 3 2 3 2 3 6 7 2 2 3 1 3 4
19 19 16 19 21 23 25 28 27 21 15 6 3 2 9 8 4 3 3 3 2 2 1 1 1 3 4 2 2 4 4 6 2 4 1 2 1 4 4 3 5 1 4 7 4 4 2
19 21 17 17 21 23 25 27 27 22 15 3 3 2 4 5 3 2 1 3 1 4 3 2 2 1 1 2 2 2 3 3 2 3 2 5 3 2 2 0 2 4 5 4 1 3 5
17 20 17 17 20 23 25 27 28 22 13 3 2 1 3 3 1 2 2 2 2 0 2 0 2 1 1 2 3 1 2 3 3 1 4 4 4 6 6 4 5 5 7 10 8 4 5
15 17 17 19 20 22 24 26 29 21 12 4 3 1 1 1 2 2 1 0 3 3 3 3 3 7 5 2 2 4 5 4 4 6 2 2 4 6 9 8 5 6 7 14 17 18 8
13 14 15 17 20 22 24 26 29 22 10 6 3 3 1 1 1 3 4 6 5 2 5 3 4 4 7 5 4 1 5 6 6 6 6 5 4 1 5 10 12 8 15 14 19 19 20
11 12 13 15 16 19 23 24 27 30 10 8 5 1 2 1 2 2 1 2 1 3 4 3 5 3 6 8 5 6 5 5 3 9 8 6 4 3 5 2 3 6 20 18 10 11 13
11 11 12 12 13 15 17 20 22 23 19 6 6 4 2 2 0 3 2 1 3 4 4 1 1 3 1 3 4 4 5 7 8 7 8 5 3 3 4 2 5 7 4 8 7 11 13
12 11 10 12 12 12 13 15 17 18 17 12 8 4 3 3 3 5 4 3 5 5 4 5 3 2 5 3 3 4 3 2 7 12 6 5 3 3 3 4 9 10 2 1 2 4 8
13 13 11 9 11 12 12 12 13 13 12 8 7 8 3 2 0 3 2 4 2 3 1 3 2 4 1 2 3 4 5 6 4 2 6 5 1 1 2 4 6 2 2 2 3 3 7
13 12 12 11 10 8 9 10 11 10 10 8 4 5 3 2 2 3 2 3 4 2 3 3 4 1 2 2 3 4 5 4 4 7 5 3 3 8 9 6 6 1 5 3 2 3 5
15 14 13 13 13 14 12 12 11 10 10 8 6 10 3 2 5 5 3 3 2 2 2 1 1 1 2 2 3 4 4 5 1 3 7 8 8 4 4 5 8 3 3 1 2 6 4
13 14 14 15 13 12 14 14 14 14 13 9 4 5 6 5 4 10 11 14 12 12 3 3 2 1 3 2 3 3 3 3 0 3 3 2 6 4 8 6 4 5 5 6 7 9 7
Wind_Direction
24 31 38 43 48 44 45 46 45 43 39 31 23 16 14 20 23 11 331 282 271 274 286 311 327 186 162 207 348 344 325 324 168 101 59 359 280 281 199 102 206 122 90 68 85 90 31
18 22 31 40 48 53 50 40 31 26 20 16 14 10 7 12 5 332 317 301 285 284 296 321 308 179 251 216 345 337 334 333 106 75 60 6 351 321 54 59 32 87 121 114 82 75 65
13 16 22 32 42 50 43 29 22 19 12 4 9 8 1 11 358 338 315 296 297 303 309 328 174 184 257 42 360 1 53 57 61 106 116 36 331 349 339 108 117 144 119 157 199 118 208
4 12 16 21 30 34 24 18 16 14 9 2 8 9 8 21 359 337 311 312 314 313 336 30 137 200 91 353 16 4 43 61 63 65 92 53 6 64 15 110 154 210 161 188 121 277 160
6 2 9 6 15 16 12 13 15 15 8 3 5 10 27 37 349 321 318 319 351 308 356 106 156 281 89 353 2 6 26 30 65 77 84 76 341 77 174 211 177 199 257 198 156 44 329
11 5 2 0 359 2 3 10 14 17 14 14 20 32 39 8 346 344 53 34 10 33 353 104 37 149 36 326 328 345 355 37 26 252 105 63 16 56 48 50 166 347 295 341 144 16 278
16 7 6 359 356 355 350 358 7 14 13 11 14 1 338 341 351 289 333 329 341 357 28 54 18 304 18 299 23 3 356 345 252 57 41 45 60 61 20 9 213 301 322 310 118 61 323
24 13 7 4 350 343 345 350 356 6 9 11 4 11 349 2 11 254 358 67 39 116 73 33 302 109 8 14 326 358 1 130 75 76 100 44 39 34 329 283 165 22 329 316 109 83 329
27 22 12 7 0 345 342 347 347 358 2 0 1 10 11 42 38 62 86 88 116 47 92 72 23 42 289 299 49 330 355 322 56 59 39 105 98 242 259 39 38 71 346 3 320 328 240
26 23 18 10 4 354 345 347 345 350 357 359 358 355 14 130 122 113 74 99 97 74 96 19 26 9 323 334 25 357 2 349 27 42 42 39 318 310 44 75 32 336 8 345 350 18 270
24 22 18 14 16 10 358 359 350 347 354 357 5 11 0 48 107 75 121 150 121 71 66 340 16 273 242 44 339 22 2 3 107 139 159 222 348 356 16 46 4 165 350 14 149 313 32
19 23 22 17 13 15 17 359 358 354 347 353 358 13 10 40 18 39 51 138 167 52 86 123 175 181 172 190 57 145 151 56 50 124 52 83 343 25 29 79 42 120 304 27 332 91 8
28 24 29 26 18 13 13 15 0 354 349 349 352 17 55 59 183 322 14 188 46 78 52 358 60 357 141 37 115 19 154 87 139 131 164 143 108 130 340 50 195 223 62 322 345 11 227
30 33 28 27 25 21 15 8 3 355 356 350 346 355 18 41 335 312 188 164 65 25 93 236 222 185 106 321 71 2 162 139 89 302 160 152 301 95 16 354 71 116 140 151 229 252 274
31 30 27 24 21 21 19 12 1 360 348 340 2 341 294 326 342 304 228 62 155 52 340 99 194 71 131 139 138 148 69 110 81 343 171 157 174 159 35 50 71 223 30 146 92 84 45
32 29 26 24 22 19 15 11 5 358 351 340 354 251 190 344 332 279 55 91 86 13 338 265 49 9 5 10 29 18 128 46 129 350 333 247 93 186 139 172 150 179 160 70 351 344 282
28 20 21 20 20 18 15 11 7 360 357 0 6 317 354 346 334 58 80 83 84 69 16 351 23 155 129 151 192 7 344 317 358 106 334 4 91 99 70 202 175 134 227 215 105 166 195
19 17 14 17 18 16 15 11 7 4 1 13 325 349 342 352 47 32 63 13 295 116 160 75 281 327 341 102 215 187 184 182 141 156 85 65 7 228 196 66 35 267 219 184 141 245 240
7 8 10 13 15 14 13 12 9 5 7 356 324 348 358 12 63 77 163 122 348 169 181 177 175 125 69 312 307 172 181 57 161 205 199 166 222 331 312 66 138 225 203 248 283 62 220
2 7 13 6 9 11 11 11 9 6 5 356 311 30 355 52 241 13 170 143 158 68 292 274 350 285 206 214 161 303 187 139 137 303 31 352 276 211 202 196 133 201 201 196 176 161 210
355 4 9 10 7 7 8 10 10 7 11 5 5 62 173 335 54 23 285 77 158 224 258 220 230 236 200 254 209 219 202 140 179 169 192 206 262 250 269 294 260 224 230 205 207 222 193
347 354 2 7 9 10 11 11 13 12 21 52 12 3 214 319 331 276 143 205 211 141 161 226 245 189 220 237 230 233 169 172 194 159 183 186 257 258 272 242 236 241 253 240 228 234 250
336 341 347 354 3 7 11 15 16 20 36 45 20 337 295 191 157 313 358 20 14 36 196 334 222 292 229 253 318 321 310 312 158 156 193 171 204 189 248 150 273 269 241 238 238 232 238
325 328 330 335 345 358 6 11 17 24 37 49 16 311 322 287 240 274 31 15 288 234 267 80 196 267 20 294 284 271 265 257 244 213 181 178 205 303 271 9 247 234 214 207 229 242 241
342 342 322 320 323 335 349 0 8 17 25 37 23 11 353 284 5 314 311 269 304 258 214 240 238 47 331 311 301 268 209 238 243 222 235 206 196 278 226 233 293 300 299 68 158 293 250
12 8 358 335 321 323 332 340 349 358 8 27 1 16 316 329 62 11 320 300 276 288 222 152 76 347 302 254 209 236 227 221 170 20 28 20 133 215 259 238 239 183 193 116 116 294 1
19 11 6 14 26 20 1 344 337 338 345 358 312 351 307 275 15 16 316 334 0 313 270 159 148 187 344 233 242 221 237 257 201 182 167 143 190 224 237 267 288 189 140 192 214 290 344
22 22 23 25 24 23 20 15 4 344 330 331 282 295 269 279 304 280 244 281 294 242 270 99 331 344 154 241 228 237 241 236 288 153 171 167 170 193 200 235 278 98 50 227 288 324 348
14 19 19 21 19 14 10 9 7 6 357 347 278 283 265 237 279 306 274 254 263 260 291 260 299 338 242 241 280 328 315 332 270 250 23 253 193 198 195 212 166 178 230 282 300 284 302